Location: Dompnac
(44.5644°N, 4.1026°E)
Time: 11:12:20
(UTC+00:00)

ATLAS 3B R/B - Pass Details

Date: 19 September 2020
Orbit: 1016 x 1179 km, 63.8° (Epoch: 28 October)

Event Time Altitude Azimuth Distance (km) Brightness Sun altitude
Rises 20:34:47 0° 324° (NW) 3,826 6.7 -29.1°
Reaches altitude 10° 20:37:29 10° 330° (NNW) 2,889 5.7 -29.5°
Maximum altitude 20:44:08 51° 45° (NE) 1,345 3.1 -30.4°
Enters shadow 20:44:10 51° 46° (NE) 1,345 3.0 -30.4°
